Marion, OH

9:15 AM EDT on April 28, 2017 (GMT -0400)
Marion Municipal

Weather History for KMNN - April, 2013

Change the Weather History Date:

Friday, April 19, 2013

  Actual Average (KDLZ) Record (KDLZ)
Temperature  
Mean Temperature 54 °F -  
Max Temperature 70 °F 63 °F 85 °F (1941)
Min Temperature 37 °F 40 °F 22 °F (1953)
Degree Days  
Heating Degree Days 12    
Growing Degree Days 4 (Base 50)    
Moisture  
Dew Point 39 °F    
Average Humidity 76    
Maximum Humidity 93    
Minimum Humidity 53    
Precipitation  
Precipitation 0.31 in - - ()
Sea Level Pressure  
Sea Level Pressure 29.66 in    
Wind  
Wind Speed 17 mph (WSW)    
Max Wind Speed 25 mph    
Max Gust Speed 36 mph    
Visibility 8 miles    
Events Rain    
Averages and records for this station are not official NWS values.
T = Trace of Precipitation, MM = Missing Value Source: NWS Daily Summary

Daily Weather History Graph

Daily Weather History Graph

Search for Another Location

Airport or City:

Trip Planner

Search our weather history database for the weather conditions in past years. The results will help you decide how hot, cold, wet, or windy it might be!

Date:

Astronomy

Apr. 19, 2013 Rise Set
Actual Time 6:47 AM EDT 8:15 PM EDT
Civil Twilight 6:18 AM EDT 8:44 PM EDT
Nautical Twilight 5:44 AM EDT 9:19 PM EDT
Astronomical Twilight 5:07 AM EDT 9:55 PM EDT
Moon 1:57 PM EDT (4/19) 3:03 AM EDT (4/19)
Length of Visible Light 14h 26m
Length of Day
13h 28m
First Quarter, 61% of the Moon is Illuminated
Apr 19
First Quarter
Apr 25
Full
May 2
Last Quarter
May 9
New
May 18
First Quarter

Hourly Weather History & Observations

Time (EDT) Temp. Windchill Dew Point Humidity Pressure Visibility Wind Dir Wind Speed Gust Speed Precip Events Conditions
12:53 AM 61.0 °F - 57.0 °F 87% 29.61 in 10.0 mi ESE 6.9 mph - N/A   Overcast
1:53 AM 64.0 °F - 55.9 °F 75% 29.57 in 10.0 mi SSE 11.5 mph - N/A   Overcast
2:53 AM 69.1 °F - 53.1 °F 57% 29.52 in 10.0 mi South 17.3 mph 24.2 mph N/A   Clear
3:53 AM 69.1 °F - 52.0 °F 54% 29.47 in 10.0 mi South 24.2 mph 31.1 mph N/A   Clear
4:53 AM 70.0 °F - 52.0 °F 53% 29.45 in 10.0 mi South 21.9 mph 29.9 mph N/A   Overcast
5:53 AM 64.9 °F - 55.9 °F 73% 29.45 in 7.0 mi South 25.3 mph 31.1 mph 0.02 in Rain Light Rain
6:53 AM 62.1 °F - 57.9 °F 86% 29.42 in 5.0 mi South 23.0 mph 34.5 mph 0.10 in Rain Rain
7:27 AM 55.4 °F - 51.8 °F 88% 29.49 in 7.0 mi West 20.7 mph 35.7 mph 0.08 in Rain Light Rain
7:31 AM 50.0 °F - 46.4 °F 87% 29.49 in 7.0 mi West 23.0 mph 35.7 mph 0.09 in Rain Rain
7:53 AM 46.9 °F - 45.0 °F 93% 29.51 in 6.0 mi WNW 17.3 mph 25.3 mph 0.12 in Rain Light Rain
8:41 AM 44.6 °F 36.4 °F 42.8 °F 93% 29.56 in 5.0 mi West 20.7 mph 28.8 mph 0.02 in Rain Light Rain
8:53 AM 44.1 °F 36.5 °F 41.0 °F 89% 29.56 in 3.0 mi West 17.3 mph 26.5 mph 0.03 in Rain Light Rain
9:18 AM 42.8 °F 35.1 °F 41.0 °F 93% 29.57 in 2.0 mi West 16.1 mph 26.5 mph 0.02 in Rain Light Rain
9:25 AM 42.8 °F 34.8 °F 39.2 °F 87% 29.57 in 2.0 mi West 17.3 mph 27.6 mph 0.03 in Rain Light Rain
9:33 AM 42.8 °F 34.3 °F 39.2 °F 87% 29.57 in 1.8 mi West 19.6 mph 28.8 mph 0.03 in Rain Light Rain
9:41 AM 42.8 °F 35.4 °F 39.2 °F 87% 29.57 in 3.0 mi West 15.0 mph 24.2 mph 0.03 in Rain Light Rain
9:53 AM 43.0 °F 35.4 °F 39.9 °F 89% 29.59 in 7.0 mi West 16.1 mph 26.5 mph 0.03 in   Overcast
10:00 AM 42.8 °F 34.5 °F 39.2 °F 87% 29.59 in 10.0 mi West 18.4 mph 26.5 mph N/A   Overcast
10:26 AM 42.8 °F 34.3 °F 37.4 °F 81% 29.62 in 10.0 mi West 19.6 mph 27.6 mph 0.01 in   Overcast
10:53 AM 41.0 °F 31.6 °F 37.0 °F 86% 29.65 in 10.0 mi West 20.7 mph 31.1 mph 0.01 in   Overcast
11:53 AM 39.9 °F 30.5 °F 33.1 °F 77% 29.68 in 10.0 mi West 19.6 mph 29.9 mph N/A   Overcast
12:53 PM 41.0 °F 31.4 °F 32.0 °F 70% 29.70 in 10.0 mi West 21.9 mph 29.9 mph N/A   Overcast
1:49 PM 41.0 °F 31.6 °F 30.2 °F 65% 29.69 in 10.0 mi WSW 20.7 mph 33.4 mph N/A   Overcast
1:53 PM 41.0 °F 31.4 °F 30.0 °F 65% 29.70 in 10.0 mi West 21.9 mph 33.4 mph N/A   Overcast
2:15 PM 41.0 °F 32.8 °F 30.2 °F 65% 29.70 in 10.0 mi West 16.1 mph 27.6 mph N/A   Overcast
2:53 PM 41.0 °F 31.9 °F 32.0 °F 70% 29.74 in 10.0 mi West 19.6 mph 28.8 mph N/A   Overcast
3:37 PM 42.8 °F 34.3 °F 30.2 °F 61% 29.74 in 10.0 mi WSW 19.6 mph 29.9 mph N/A   Overcast
3:53 PM 41.0 °F 31.4 °F 30.9 °F 67% 29.75 in 10.0 mi WSW 21.9 mph 34.5 mph N/A   Overcast
4:53 PM 42.1 °F 33.3 °F 28.9 °F 60% 29.78 in 10.0 mi WSW 19.6 mph 29.9 mph N/A   Overcast
5:53 PM 41.0 °F 31.6 °F 30.0 °F 65% 29.81 in 10.0 mi WSW 20.7 mph 31.1 mph N/A   Overcast
6:53 PM 39.9 °F 31.4 °F 30.0 °F 68% 29.83 in 10.0 mi WSW 16.1 mph 24.2 mph 0.00 in   Overcast
7:35 PM 39.2 °F 30.8 °F 30.2 °F 70% 29.84 in 10.0 mi WSW 15.0 mph 23.0 mph N/A   Overcast
7:49 PM 39.2 °F 30.5 °F 30.2 °F 70% 29.85 in 10.0 mi WSW 16.1 mph 26.5 mph N/A   Overcast
7:53 PM 39.0 °F 29.6 °F 30.0 °F 70% 29.87 in 10.0 mi WSW 18.4 mph 26.5 mph N/A   Overcast
8:53 PM 37.9 °F 29.2 °F 30.0 °F 73% 29.88 in 10.0 mi WSW 15.0 mph 24.2 mph 0.00 in   Overcast
9:53 PM 37.9 °F 29.2 °F 30.0 °F 73% 29.89 in 10.0 mi WSW 15.0 mph 26.5 mph N/A   Overcast
10:53 PM 37.9 °F 28.5 °F 30.0 °F 73% 29.91 in 10.0 mi WSW 17.3 mph 25.3 mph N/A   Overcast
11:53 PM 37.0 °F 27.4 °F 30.0 °F 76% 29.92 in 10.0 mi WSW 17.3 mph 27.6 mph N/A   Overcast